Time,TemperatureF,DewpointF,PressureIn,WindDirection,WindDirectionDegrees,WindSpeedMPH,WindSpeedGustMPH,Humidity,HourlyPrecipIn,Conditions,Clouds,dailyrainin,SoftwareType,DateUTC
2013-03-02 00:00:00,56.3,46.6,30.02,NW,315,2.0,10.0,70,0.00,,,0.00,Wunderground v.1.15,2013-03-02 05:00:00,
2013-03-02 00:05:00,56.2,46.9,30.03,NW,313,4.0,10.0,71,0.00,,,0.00,Wunderground v.1.15,2013-03-02 05:05:00,
2013-03-02 00:10:00,56.1,46.8,30.02,NW,316,7.0,7.0,71,0.00,,,0.00,Wunderground v.1.15,2013-03-02 05:10:00,
2013-03-02 00:15:00,56.1,46.4,30.02,NW,311,8.0,9.0,70,0.00,,,0.00,Wunderground v.1.15,2013-03-02 05:15:00,
2013-03-02 00:20:00,56.0,46.0,30.02,NW,310,8.0,10.0,69,0.00,,,0.00,Wunderground v.1.15,2013-03-02 05:20:00,
2013-03-02 00:25:00,56.1,45.7,30.03,NW,309,9.0,13.0,68,0.00,,,0.00,Wunderground v.1.15,2013-03-02 05:25:00,
2013-03-02 00:30:00,56.0,45.2,30.03,NW,312,9.0,9.0,67,0.00,,,0.00,Wunderground v.1.15,2013-03-02 05:30:00,
2013-03-02 00:40:00,56.1,44.5,30.02,NW,306,8.0,8.0,65,0.00,,,0.00,Wunderground v.1.15,2013-03-02 05:40:00,
2013-03-02 00:50:00,56.1,44.5,30.02,NW,308,8.0,11.0,65,0.00,,,0.00,Wunderground v.1.15,2013-03-02 05:50:00,
2013-03-02 00:55:00,56.0,44.0,30.03,NW,309,8.0,11.0,64,0.00,,,0.00,Wunderground v.1.15,2013-03-02 05:55:00,
2013-03-02 01:00:00,56.0,44.4,30.03,WNW,303,8.0,11.0,65,0.00,,,0.00,Wunderground v.1.15,2013-03-02 06:00:00,
2013-03-02 01:10:00,55.9,44.3,30.02,NW,306,7.0,11.0,65,0.00,,,0.00,Wunderground v.1.15,2013-03-02 06:10:00,
2013-03-02 01:15:00,55.9,44.3,30.02,NW,319,6.0,11.0,65,0.00,,,0.00,Wunderground v.1.15,2013-03-02 06:15:00,
2013-03-02 01:20:00,55.9,43.9,30.02,NW,310,7.0,11.0,64,0.00,,,0.00,Wunderground v.1.15,2013-03-02 06:20:00,
2013-03-02 01:25:00,55.9,43.9,30.02,NW,313,7.0,11.0,64,0.00,,,0.00,Wunderground v.1.15,2013-03-02 06:25:00,
2013-03-02 01:30:00,55.8,43.8,30.02,NW,306,8.0,11.0,64,0.00,,,0.00,Wunderground v.1.15,2013-03-02 06:30:00,
2013-03-02 01:35:00,55.7,43.7,30.02,NW,306,8.0,11.0,64,0.00,,,0.00,Wunderground v.1.15,2013-03-02 06:35:00,
2013-03-02 01:45:00,55.7,43.7,30.02,NW,305,7.0,11.0,64,0.00,,,0.00,Wunderground v.1.15,2013-03-02 06:45:00,
2013-03-02 01:50:00,55.7,43.3,30.02,NW,312,6.0,11.0,63,0.00,,,0.00,Wunderground v.1.15,2013-03-02 06:50:00,
2013-03-02 01:55:00,55.7,43.3,30.02,NW,316,5.0,11.0,63,0.00,,,0.00,Wunderground v.1.15,2013-03-02 06:55:00,
2013-03-02 02:00:00,55.7,42.9,30.02,NW,317,6.0,9.0,62,0.00,,,0.00,Wunderground v.1.15,2013-03-02 07:00:00,
2013-03-02 02:10:00,55.8,42.5,30.02,NW,314,6.0,9.0,61,0.00,,,0.00,Wunderground v.1.15,2013-03-02 07:10:00,
2013-03-02 02:15:00,55.8,42.5,30.02,NNW,328,7.0,9.0,61,0.00,,,0.00,Wunderground v.1.15,2013-03-02 07:15:00,
2013-03-02 02:20:00,55.8,42.1,30.02,NW,316,8.0,8.0,60,0.00,,,0.00,Wunderground v.1.15,2013-03-02 07:20:00,
2013-03-02 02:25:00,55.8,42.1,30.02,NW,320,7.0,8.0,60,0.00,,,0.00,Wunderground v.1.15,2013-03-02 07:25:00,
2013-03-02 02:30:00,55.8,42.1,30.01,NNW,333,5.0,7.0,60,0.00,,,0.00,Wunderground v.1.15,2013-03-02 07:30:00,
2013-03-02 02:35:00,55.8,42.1,30.01,NW,312,6.0,7.0,60,0.00,,,0.00,Wunderground v.1.15,2013-03-02 07:35:00,
2013-03-02 02:40:00,55.9,42.6,30.01,NW,325,5.0,5.0,61,0.00,,,0.00,Wunderground v.1.15,2013-03-02 07:40:00,
2013-03-02 02:45:00,55.9,42.6,30.01,NW,323,3.0,7.0,61,0.00,,,0.00,Wunderground v.1.15,2013-03-02 07:45:00,
2013-03-02 02:55:00,55.7,42.9,30.01,NW,307,5.0,7.0,62,0.00,,,0.00,Wunderground v.1.15,2013-03-02 07:55:00,
2013-03-02 03:00:00,55.5,42.7,30.01,NW,305,6.0,13.0,62,0.00,,,0.00,Wunderground v.1.15,2013-03-02 08:00:00,
2013-03-02 03:10:00,55.6,42.4,30.01,NW,308,7.0,7.0,61,0.00,,,0.00,Wunderground v.1.15,2013-03-02 08:10:00,
2013-03-02 03:15:00,55.5,42.7,30.01,NW,310,7.0,13.0,62,0.00,,,0.00,Wunderground v.1.15,2013-03-02 08:15:00,
2013-03-02 03:20:00,55.4,42.6,30.01,NW,313,6.0,6.0,62,0.00,,,0.00,Wunderground v.1.15,2013-03-02 08:20:00,
2013-03-02 03:25:00,55.4,42.6,30.01,NW,321,6.0,8.0,62,0.00,,,0.00,Wunderground v.1.15,2013-03-02 08:25:00,
2013-03-02 03:30:00,55.4,42.6,30.01,NNW,335,5.0,13.0,62,0.00,,,0.00,Wunderground v.1.15,2013-03-02 08:30:00,
2013-03-02 03:35:00,55.4,42.6,30.01,NW,323,5.0,13.0,62,0.00,,,0.00,Wunderground v.1.15,2013-03-02 08:35:00,
2013-03-02 03:40:00,55.3,42.9,30.01,NW,304,5.0,13.0,63,0.00,,,0.00,Wunderground v.1.15,2013-03-02 08:40:00,
2013-03-02 03:45:00,55.3,42.9,30.01,NW,308,4.0,13.0,63,0.00,,,0.00,Wunderground v.1.15,2013-03-02 08:45:00,
2013-03-02 03:50:00,55.2,42.8,30.01,NW,307,5.0,5.0,63,0.00,,,0.00,Wunderground v.1.15,2013-03-02 08:50:00,
2013-03-02 04:00:00,55.3,43.3,30.01,NW,309,2.0,6.0,64,0.00,,,0.00,Wunderground v.1.15,2013-03-02 09:00:00,
2013-03-02 04:10:00,55.1,43.1,30.01,NW,306,4.0,4.0,64,0.00,,,0.00,Wunderground v.1.15,2013-03-02 09:10:00,
2013-03-02 04:15:00,55.1,43.5,30.01,NW,312,4.0,7.0,65,0.00,,,0.00,Wunderground v.1.15,2013-03-02 09:15:00,
2013-03-02 04:20:00,55.0,43.4,30.01,NW,309,3.0,3.0,65,0.00,,,0.00,Wunderground v.1.15,2013-03-02 09:20:00,
2013-03-02 04:25:00,55.0,43.4,30.01,NW,315,4.0,4.0,65,0.00,,,0.00,Wunderground v.1.15,2013-03-02 09:25:00,
2013-03-02 04:35:00,55.0,43.8,30.01,NW,315,1.0,6.0,66,0.00,,,0.00,Wunderground v.1.15,2013-03-02 09:35:00,
2013-03-02 04:40:00,55.0,43.8,30.02,NW,315,0.0,6.0,66,0.00,,,0.00,Wunderground v.1.15,2013-03-02 09:40:00,
2013-03-02 04:45:00,54.9,43.7,30.02,NW,315,1.0,6.0,66,0.00,,,0.00,Wunderground v.1.15,2013-03-02 09:45:00,
2013-03-02 04:50:00,55.0,43.8,30.02,NW,317,2.0,6.0,66,0.00,,,0.00,Wunderground v.1.15,2013-03-02 09:50:00,
2013-03-02 04:55:00,55.0,43.4,30.02,NW,315,2.0,8.0,65,0.00,,,0.00,Wunderground v.1.15,2013-03-02 09:55:00,
2013-03-02 05:00:00,54.9,43.7,30.02,NW,314,2.0,2.0,66,0.00,,,0.00,Wunderground v.1.15,2013-03-02 10:00:00,
2013-03-02 05:20:00,54.9,43.7,30.03,NW,323,2.0,7.0,66,0.00,,,0.00,Wunderground v.1.15,2013-03-02 10:20:00,
2013-03-02 05:25:00,55.0,43.4,30.02,NW,317,2.0,7.0,65,0.00,,,0.00,Wunderground v.1.15,2013-03-02 10:25:00,
2013-03-02 05:30:00,55.0,43.0,30.02,NW,324,4.0,7.0,64,0.00,,,0.00,Wunderground v.1.15,2013-03-02 10:30:00,
2013-03-02 05:35:00,55.0,43.0,30.02,NNW,340,5.0,11.0,64,0.00,,,0.00,Wunderground v.1.15,2013-03-02 10:35:00,
2013-03-02 05:45:00,54.9,42.5,30.02,NW,318,6.0,6.0,63,0.00,,,0.00,Wunderground v.1.15,2013-03-02 10:45:00,
2013-03-02 05:50:00,54.7,42.8,30.02,NNE,15,6.0,7.0,64,0.00,,,0.00,Wunderground v.1.15,2013-03-02 10:50:00,
2013-03-02 05:55:00,54.5,42.2,30.02,NW,319,5.0,7.0,63,0.00,,,0.00,Wunderground v.1.15,2013-03-02 10:55:00,
2013-03-02 06:00:00,54.4,42.5,30.03,NW,322,5.0,7.0,64,0.00,,,0.00,Wunderground v.1.15,2013-03-02 11:00:00,
2013-03-02 06:10:00,54.1,42.6,30.03,NNW,330,6.0,6.0,65,0.00,,,0.00,Wunderground v.1.15,2013-03-02 11:10:00,
2013-03-02 06:15:00,54.1,42.6,30.03,NNW,327,5.0,7.0,65,0.00,,,0.00,Wunderground v.1.15,2013-03-02 11:15:00,
2013-03-02 06:25:00,53.9,42.8,30.03,NNW,327,5.0,10.0,66,0.00,,,0.00,Wunderground v.1.15,2013-03-02 11:25:00,
2013-03-02 06:30:00,53.7,42.6,30.04,NNE,15,5.0,5.0,66,0.00,,,0.00,Wunderground v.1.15,2013-03-02 11:30:00,
2013-03-02 06:35:00,53.7,43.0,30.05,NW,320,5.0,7.0,67,0.00,,,0.00,Wunderground v.1.15,2013-03-02 11:35:00,
2013-03-02 06:40:00,53.6,42.5,30.05,NE,38,4.0,4.0,66,0.00,,,0.00,Wunderground v.1.15,2013-03-02 11:40:00,
2013-03-02 06:45:00,53.5,42.4,30.05,NW,326,3.0,7.0,66,0.00,,,0.00,Wunderground v.1.15,2013-03-02 11:45:00,
2013-03-02 06:50:00,53.4,42.7,30.05,North,9,3.0,3.0,67,0.00,,,0.00,Wunderground v.1.15,2013-03-02 11:50:00,
2013-03-02 06:55:00,53.4,43.1,30.05,NNE,32,2.0,7.0,68,0.00,,,0.00,Wunderground v.1.15,2013-03-02 11:55:00,
2013-03-02 07:00:00,53.3,42.6,30.05,North,355,2.0,7.0,67,0.00,,,0.00,Wunderground v.1.15,2013-03-02 12:00:00,
2013-03-02 07:10:00,53.3,42.6,30.05,WNW,289,5.0,10.0,67,0.00,,,0.00,Wunderground v.1.15,2013-03-02 12:10:00,
2013-03-02 07:15:00,53.2,42.5,30.05,NW,321,5.0,10.0,67,0.00,,,0.00,Wunderground v.1.15,2013-03-02 12:15:00,
2013-03-02 07:20:00,53.2,42.5,30.06,NNE,20,3.0,6.0,67,0.00,,,0.00,Wunderground v.1.15,2013-03-02 12:20:00,
2013-03-02 07:30:00,53.2,42.5,30.06,North,5,1.0,6.0,67,0.00,,,0.00,Wunderground v.1.15,2013-03-02 12:30:00,
2013-03-02 07:35:00,53.2,42.5,30.06,NNW,342,1.0,6.0,67,0.00,,,0.00,Wunderground v.1.15,2013-03-02 12:35:00,
2013-03-02 07:40:00,53.2,42.5,30.06,NNW,343,1.0,1.0,67,0.00,,,0.00,Wunderground v.1.15,2013-03-02 12:40:00,
2013-03-02 07:45:00,53.2,42.5,30.06,NNW,338,1.0,6.0,67,0.00,,,0.00,Wunderground v.1.15,2013-03-02 12:45:00,
2013-03-02 07:50:00,53.4,42.7,30.06,NNW,342,1.0,6.0,67,0.00,,,0.00,Wunderground v.1.15,2013-03-02 12:50:00,
2013-03-02 07:55:00,53.5,42.8,30.06,NNW,346,1.0,6.0,67,0.00,,,0.00,Wunderground v.1.15,2013-03-02 12:55:00,
2013-03-02 08:00:00,53.7,42.6,30.06,NNW,334,1.0,1.0,66,0.00,,,0.00,Wunderground v.1.15,2013-03-02 13:00:00,
2013-03-02 08:10:00,53.8,42.3,30.06,NNW,341,1.0,1.0,65,0.00,,,0.00,Wunderground v.1.15,2013-03-02 13:10:00,
2013-03-02 08:15:00,54.0,42.5,30.06,NNW,348,1.0,3.0,65,0.00,,,0.00,Wunderground v.1.15,2013-03-02 13:15:00,
2013-03-02 08:20:00,54.4,42.9,30.06,NNW,330,1.0,1.0,65,0.00,,,0.00,Wunderground v.1.15,2013-03-02 13:20:00,
2013-03-02 08:25:00,55.0,43.0,30.06,NNW,331,1.0,2.0,64,0.00,,,0.00,Wunderground v.1.15,2013-03-02 13:25:00,
2013-03-02 08:30:00,55.5,43.1,30.06,NNW,329,0.0,2.0,63,0.00,,,0.00,Wunderground v.1.15,2013-03-02 13:30:00,
2013-03-02 08:40:00,55.9,42.6,30.06,NNW,327,0.0,2.0,61,0.00,,,0.00,Wunderground v.1.15,2013-03-02 13:40:00,
2013-03-02 08:45:00,56.0,42.7,30.06,NNW,327,0.0,2.0,61,0.00,,,0.00,Wunderground v.1.15,2013-03-02 13:45:00,
2013-03-02 08:50:00,56.2,42.5,30.05,NW,326,0.0,2.0,60,0.00,,,0.00,Wunderground v.1.15,2013-03-02 13:50:00,
2013-03-02 08:55:00,56.2,42.5,30.06,NW,326,0.0,2.0,60,0.00,,,0.00,Wunderground v.1.15,2013-03-02 13:55:00,
2013-03-02 09:00:00,56.5,42.8,30.05,NW,326,0.0,0.0,60,0.00,,,0.00,Wunderground v.1.15,2013-03-02 14:00:00,
2013-03-02 09:10:00,56.8,42.2,30.05,NW,323,0.0,0.0,58,0.00,,,0.00,Wunderground v.1.15,2013-03-02 14:10:00,
2013-03-02 09:15:00,57.0,42.4,30.06,NW,320,0.0,0.0,58,0.00,,,0.00,Wunderground v.1.15,2013-03-02 14:15:00,
2013-03-02 09:20:00,57.1,42.0,30.06,NW,320,0.0,0.0,57,0.00,,,0.00,Wunderground v.1.15,2013-03-02 14:20:00,
2013-03-02 09:25:00,56.9,40.9,30.06,NW,325,0.0,2.0,55,0.00,,,0.00,Wunderground v.1.15,2013-03-02 14:25:00,
2013-03-02 09:30:00,56.8,40.8,30.06,NW,319,1.0,1.0,55,0.00,,,0.00,Wunderground v.1.15,2013-03-02 14:30:00,
2013-03-02 09:35:00,57.1,41.5,30.06,NW,320,0.0,1.0,56,0.00,,,0.00,Wunderground v.1.15,2013-03-02 14:35:00,
2013-03-02 09:45:00,57.7,41.2,30.06,WNW,294,0.0,0.0,54,0.00,,,0.00,Wunderground v.1.15,2013-03-02 14:45:00,
2013-03-02 09:50:00,58.1,41.5,30.06,WNW,294,0.0,0.0,54,0.00,,,0.00,Wunderground v.1.15,2013-03-02 14:50:00,
2013-03-02 09:55:00,58.6,41.0,30.05,WNW,289,0.0,0.0,52,0.00,,,0.00,Wunderground v.1.15,2013-03-02 14:55:00,
2013-03-02 10:00:00,59.0,41.4,30.05,WNW,290,0.0,1.0,52,0.00,,,0.00,Wunderground v.1.15,2013-03-02 15:00:00,
2013-03-02 10:10:00,58.9,41.8,30.06,South,184,0.0,1.0,53,0.00,,,0.00,Wunderground v.1.15,2013-03-02 15:10:00,
2013-03-02 10:20:00,59.0,41.9,30.06,SE,126,1.0,2.0,53,0.00,,,0.00,Wunderground v.1.15,2013-03-02 15:20:00,
2013-03-02 10:25:00,59.2,41.1,30.06,SE,127,1.0,2.0,51,0.00,,,0.00,Wunderground v.1.15,2013-03-02 15:25:00,
2013-03-02 10:35:00,60.9,42.6,30.06,SE,127,0.0,1.0,51,0.00,,,0.00,Wunderground v.1.15,2013-03-02 15:35:00,
2013-03-02 10:40:00,60.9,42.1,30.07,NNE,28,0.0,1.0,50,0.00,,,0.00,Wunderground v.1.15,2013-03-02 15:40:00,
2013-03-02 10:50:00,59.4,41.8,30.06,NNE,25,0.0,1.0,52,0.00,,,0.00,Wunderground v.1.15,2013-03-02 15:50:00,
2013-03-02 10:55:00,59.6,41.9,30.07,NNE,26,0.0,1.0,52,0.00,,,0.00,Wunderground v.1.15,2013-03-02 15:55:00,
2013-03-02 11:00:00,60.1,41.9,30.07,NNE,26,0.0,0.0,51,0.00,,,0.00,Wunderground v.1.15,2013-03-02 16:00:00,
2013-03-02 11:10:00,59.7,42.5,30.07,NW,321,0.0,2.0,53,0.00,,,0.00,Wunderground v.1.15,2013-03-02 16:10:00,
2013-03-02 11:15:00,59.0,42.4,30.07,NW,306,3.0,3.0,54,0.00,,,0.00,Wunderground v.1.15,2013-03-02 16:15:00,
2013-03-02 11:25:00,58.6,42.0,30.07,NW,309,0.0,3.0,54,0.00,,,0.00,Wunderground v.1.15,2013-03-02 16:25:00,
2013-03-02 11:30:00,58.8,42.7,30.07,NW,309,0.0,0.0,55,0.00,,,0.00,Wunderground v.1.15,2013-03-02 16:30:00,
2013-03-02 11:35:00,59.0,42.8,30.07,NW,309,0.0,3.0,55,0.00,,,0.00,Wunderground v.1.15,2013-03-02 16:35:00,
2013-03-02 11:40:00,58.7,43.0,30.07,NNW,327,1.0,5.0,56,0.00,,,0.00,Wunderground v.1.15,2013-03-02 16:40:00,
2013-03-02 11:45:00,58.4,42.3,30.07,NW,325,3.0,5.0,55,0.00,,,0.00,Wunderground v.1.15,2013-03-02 16:45:00,
2013-03-02 11:50:00,58.3,42.2,30.07,NNW,338,4.0,4.0,55,0.00,,,0.00,Wunderground v.1.15,2013-03-02 16:50:00,
2013-03-02 12:00:00,58.3,40.7,30.07,NW,311,4.0,4.0,52,0.00,,,0.00,Wunderground v.1.15,2013-03-02 17:00:00,
2013-03-02 12:10:00,59.0,41.4,30.06,NW,316,3.0,12.0,52,0.00,,,0.00,Wunderground v.1.15,2013-03-02 17:10:00,
2013-03-02 12:15:00,59.6,41.4,30.06,NW,313,1.0,12.0,51,0.00,,,0.00,Wunderground v.1.15,2013-03-02 17:15:00,
2013-03-02 12:20:00,60.0,42.3,30.05,NW,310,1.0,1.0,52,0.00,,,0.00,Wunderground v.1.15,2013-03-02 17:20:00,
2013-03-02 12:25:00,59.6,41.4,30.05,NW,309,2.0,2.0,51,0.00,,,0.00,Wunderground v.1.15,2013-03-02 17:25:00,
2013-03-02 12:35:00,60.0,41.8,30.05,NW,323,1.0,12.0,51,0.00,,,0.00,Wunderground v.1.15,2013-03-02 17:35:00,
2013-03-02 12:40:00,60.8,42.0,30.04,NW,323,1.0,12.0,50,0.00,,,0.00,Wunderground v.1.15,2013-03-02 17:40:00,
2013-03-02 12:45:00,60.2,43.0,30.04,NW,307,3.0,12.0,53,0.00,,,0.00,Wunderground v.1.15,2013-03-02 17:45:00,
2013-03-02 12:50:00,60.0,42.8,30.04,NW,321,4.0,12.0,53,0.00,,,0.00,Wunderground v.1.15,2013-03-02 17:50:00,
2013-03-02 12:55:00,59.5,42.8,30.05,NNW,343,5.0,12.0,54,0.00,,,0.00,Wunderground v.1.15,2013-03-02 17:55:00,
2013-03-02 13:00:00,59.5,43.3,30.05,NNW,336,6.0,11.0,55,0.00,,,0.00,Wunderground v.1.15,2013-03-02 18:00:00,
2013-03-02 13:10:00,59.4,42.7,30.04,WNW,286,6.0,6.0,54,0.00,,,0.00,Wunderground v.1.15,2013-03-02 18:10:00,
2013-03-02 13:15:00,60.2,43.5,30.04,NNW,329,6.0,11.0,54,0.00,,,0.00,Wunderground v.1.15,2013-03-02 18:15:00,
2013-03-02 13:20:00,60.0,42.3,30.04,NW,313,9.0,9.0,52,0.00,,,0.00,Wunderground v.1.15,2013-03-02 18:20:00,
2013-03-02 13:25:00,60.5,42.8,30.04,NW,315,10.0,14.0,52,0.00,,,0.00,Wunderground v.1.15,2013-03-02 18:25:00,
2013-03-02 13:30:00,59.8,41.6,30.04,NW,314,10.0,11.0,51,0.00,,,0.00,Wunderground v.1.15,2013-03-02 18:30:00,
2013-03-02 13:40:00,60.9,43.6,30.04,NNW,327,7.0,7.0,53,0.00,,,0.00,Wunderground v.1.15,2013-03-02 18:40:00,
2013-03-02 13:45:00,60.6,43.9,30.04,NW,307,8.0,13.0,54,0.00,,,0.00,Wunderground v.1.15,2013-03-02 18:45:00,
2013-03-02 13:50:00,59.9,43.2,30.04,WNW,300,9.0,9.0,54,0.00,,,0.00,Wunderground v.1.15,2013-03-02 18:50:00,
2013-03-02 13:55:00,60.5,44.2,30.03,NW,304,9.0,11.0,55,0.00,,,0.00,Wunderground v.1.15,2013-03-02 18:55:00,
2013-03-02 14:00:00,60.9,44.6,30.03,NW,325,7.0,7.0,55,0.00,,,0.00,Wunderground v.1.15,2013-03-02 19:00:00,
2013-03-02 14:10:00,60.6,44.3,30.02,NW,319,7.0,13.0,55,0.00,,,0.00,Wunderground v.1.15,2013-03-02 19:10:00,
2013-03-02 14:15:00,60.9,44.6,30.02,NW,314,9.0,13.0,55,0.00,,,0.00,Wunderground v.1.15,2013-03-02 19:15:00,
2013-03-02 14:20:00,61.3,44.5,30.02,NW,316,8.0,13.0,54,0.00,,,0.00,Wunderground v.1.15,2013-03-02 19:20:00,
2013-03-02 14:25:00,61.3,44.0,30.02,WNW,296,8.0,13.0,53,0.00,,,0.00,Wunderground v.1.15,2013-03-02 19:25:00,
2013-03-02 14:30:00,60.2,43.5,30.02,WNW,288,9.0,15.0,54,0.00,,,0.00,Wunderground v.1.15,2013-03-02 19:30:00,
2013-03-02 14:35:00,59.9,43.7,30.02,NW,310,12.0,15.0,55,0.00,,,0.00,Wunderground v.1.15,2013-03-02 19:35:00,
2013-03-02 14:40:00,60.5,43.8,30.02,NW,325,9.0,13.0,54,0.00,,,0.00,Wunderground v.1.15,2013-03-02 19:40:00,
2013-03-02 14:50:00,61.1,43.8,30.01,WNW,302,9.0,15.0,53,0.00,,,0.00,Wunderground v.1.15,2013-03-02 19:50:00,
2013-03-02 14:55:00,60.8,44.5,30.01,NW,306,10.0,15.0,55,0.00,,,0.00,Wunderground v.1.15,2013-03-02 19:55:00,
2013-03-02 15:00:00,61.4,44.6,30.01,North,5,9.0,9.0,54,0.00,,,0.00,Wunderground v.1.15,2013-03-02 20:00:00,
2013-03-02 15:10:00,60.9,42.6,30.01,NW,309,11.0,21.0,51,0.00,,,0.00,Wunderground v.1.15,2013-03-02 20:10:00,
2013-03-02 15:15:00,60.2,42.5,30.01,WNW,284,15.0,21.0,52,0.00,,,0.00,Wunderground v.1.15,2013-03-02 20:15:00,
2013-03-02 15:25:00,60.3,42.6,30.02,NW,309,12.0,15.0,52,0.00,,,0.00,Wunderground v.1.15,2013-03-02 20:25:00,
2013-03-02 15:30:00,60.3,42.6,30.02,NW,313,11.0,11.0,52,0.00,,,0.00,Wunderground v.1.15,2013-03-02 20:30:00,
2013-03-02 15:35:00,59.6,41.4,30.02,NW,324,12.0,12.0,51,0.00,,,0.00,Wunderground v.1.15,2013-03-02 20:35:00,
2013-03-02 15:40:00,59.4,42.7,30.02,NW,323,12.0,13.0,54,0.00,,,0.00,Wunderground v.1.15,2013-03-02 20:40:00,
2013-03-02 15:45:00,59.4,42.7,30.02,NW,320,10.0,13.0,54,0.00,,,0.00,Wunderground v.1.15,2013-03-02 20:45:00,
2013-03-02 15:55:00,60.0,41.3,30.01,NW,304,11.0,12.0,50,0.00,,,0.00,Wunderground v.1.15,2013-03-02 20:55:00,
2013-03-02 16:00:00,59.5,40.3,30.01,NW,311,8.0,8.0,49,0.00,,,0.00,Wunderground v.1.15,2013-03-02 21:00:00,
2013-03-02 16:10:00,59.4,40.7,30.01,NW,308,10.0,10.0,50,0.00,,,0.00,Wunderground v.1.15,2013-03-02 21:10:00,
2013-03-02 16:15:00,59.5,41.3,30.01,NW,315,7.0,18.0,51,0.00,,,0.00,Wunderground v.1.15,2013-03-02 21:15:00,
2013-03-02 16:20:00,59.4,41.8,30.01,NW,313,5.0,5.0,52,0.00,,,0.00,Wunderground v.1.15,2013-03-02 21:20:00,
2013-03-02 16:30:00,58.9,40.3,30.01,NNW,327,12.0,12.0,50,0.00,,,0.00,Wunderground v.1.15,2013-03-02 21:30:00,
2013-03-02 16:35:00,58.7,40.6,30.01,NW,309,12.0,18.0,51,0.00,,,0.00,Wunderground v.1.15,2013-03-02 21:35:00,
2013-03-02 16:45:00,58.5,38.9,30.01,NW,319,11.0,18.0,48,0.00,,,0.00,Wunderground v.1.15,2013-03-02 21:45:00,
2013-03-02 16:50:00,58.4,39.3,30.01,WNW,296,13.0,13.0,49,0.00,,,0.00,Wunderground v.1.15,2013-03-02 21:50:00,
2013-03-02 16:55:00,58.5,38.9,30.01,NW,321,12.0,18.0,48,0.00,,,0.00,Wunderground v.1.15,2013-03-02 21:55:00,
2013-03-02 17:00:00,58.7,39.6,30.01,NNW,329,10.0,14.0,49,0.00,,,0.00,Wunderground v.1.15,2013-03-02 22:00:00,
2013-03-02 17:10:00,59.4,39.7,30.02,NW,325,10.0,10.0,48,0.00,,,0.00,Wunderground v.1.15,2013-03-02 22:10:00,
2013-03-02 17:15:00,59.4,39.7,30.02,NW,313,9.0,14.0,48,0.00,,,0.00,Wunderground v.1.15,2013-03-02 22:15:00,
2013-03-02 17:20:00,59.2,40.0,30.01,NW,315,10.0,14.0,49,0.00,,,0.00,Wunderground v.1.15,2013-03-02 22:20:00,
2013-03-02 17:25:00,59.5,40.3,30.02,NW,320,10.0,14.0,49,0.00,,,0.00,Wunderground v.1.15,2013-03-02 22:25:00,
2013-03-02 17:35:00,59.1,40.5,30.03,NW,312,8.0,15.0,50,0.00,,,0.00,Wunderground v.1.15,2013-03-02 22:35:00,
2013-03-02 17:40:00,58.9,40.3,30.03,NW,304,8.0,14.0,50,0.00,,,0.00,Wunderground v.1.15,2013-03-02 22:40:00,
2013-03-02 17:45:00,58.8,40.7,30.03,NW,314,9.0,14.0,51,0.00,,,0.00,Wunderground v.1.15,2013-03-02 22:45:00,
2013-03-02 17:50:00,58.8,41.2,30.03,NW,320,8.0,8.0,52,0.00,,,0.00,Wunderground v.1.15,2013-03-02 22:50:00,
2013-03-02 17:55:00,58.4,40.8,30.03,NW,313,7.0,14.0,52,0.00,,,0.00,Wunderground v.1.15,2013-03-02 22:55:00,
2013-03-02 18:00:00,58.1,41.5,30.03,NW,315,7.0,12.0,54,0.00,,,0.00,Wunderground v.1.15,2013-03-02 23:00:00,
2013-03-02 18:10:00,57.6,42.0,30.03,NW,313,6.0,12.0,56,0.00,,,0.00,Wunderground v.1.15,2013-03-02 23:10:00,
2013-03-02 18:15:00,57.5,41.9,30.03,NW,311,7.0,12.0,56,0.00,,,0.00,Wunderground v.1.15,2013-03-02 23:15:00,
2013-03-02 18:20:00,57.3,41.7,30.03,NW,313,7.0,7.0,56,0.00,,,0.00,Wunderground v.1.15,2013-03-02 23:20:00,
2013-03-02 18:25:00,57.0,41.4,30.03,NW,311,6.0,12.0,56,0.00,,,0.00,Wunderground v.1.15,2013-03-02 23:25:00,
2013-03-02 18:30:00,56.9,41.4,30.03,NNW,333,5.0,5.0,56,0.00,,,0.00,Wunderground v.1.15,2013-03-02 23:30:00,
2013-03-02 18:35:00,56.6,41.1,30.03,NW,325,5.0,12.0,56,0.00,,,0.00,Wunderground v.1.15,2013-03-02 23:35:00,
2013-03-02 18:45:00,55.9,41.3,30.04,NW,310,6.0,6.0,58,0.00,,,0.00,Wunderground v.1.15,2013-03-02 23:45:00,
2013-03-02 18:55:00,55.5,41.4,30.04,NW,311,4.0,12.0,59,0.00,,,0.00,Wunderground v.1.15,2013-03-02 23:55:00,
2013-03-02 19:00:00,55.4,41.3,30.04,NW,311,2.0,2.0,59,0.00,,,0.00,Wunderground v.1.15,2013-03-03 00:00:00,
2013-03-02 19:10:00,55.4,41.3,30.03,NW,311,1.0,1.0,59,0.00,,,0.00,Wunderground v.1.15,2013-03-03 00:10:00,
2013-03-02 19:20:00,55.4,41.3,30.03,NW,311,0.0,2.0,59,0.00,,,0.00,Wunderground v.1.15,2013-03-03 00:20:00,
2013-03-02 19:25:00,55.3,41.6,30.03,NW,311,0.0,2.0,60,0.00,,,0.00,Wunderground v.1.15,2013-03-03 00:25:00,
2013-03-02 19:30:00,55.3,41.6,30.04,NW,311,0.0,2.0,60,0.00,,,0.00,Wunderground v.1.15,2013-03-03 00:30:00,
2013-03-02 19:35:00,55.3,42.1,30.05,NW,311,0.0,2.0,61,0.00,,,0.00,Wunderground v.1.15,2013-03-03 00:35:00,
2013-03-02 19:40:00,55.2,42.0,30.04,NW,311,0.0,2.0,61,0.00,,,0.00,Wunderground v.1.15,2013-03-03 00:40:00,
2013-03-02 19:45:00,54.9,42.5,30.05,NW,311,0.0,2.0,63,0.00,,,0.00,Wunderground v.1.15,2013-03-03 00:45:00,
2013-03-02 19:55:00,54.5,43.8,30.04,NW,311,0.0,2.0,67,0.00,,,0.00,Wunderground v.1.15,2013-03-03 00:55:00,
2013-03-02 20:00:00,54.5,43.8,30.05,NW,311,0.0,0.0,67,0.00,,,0.00,Wunderground v.1.15,2013-03-03 01:00:00,
2013-03-02 20:10:00,54.3,42.8,30.06,NW,311,2.0,4.0,65,0.00,,,0.00,Wunderground v.1.15,2013-03-03 01:10:00,
2013-03-02 20:15:00,54.3,42.8,30.06,NW,311,3.0,6.0,65,0.00,,,0.00,Wunderground v.1.15,2013-03-03 01:15:00,
2013-03-02 20:20:00,54.1,42.6,30.06,NW,311,4.0,4.0,65,0.00,,,0.00,Wunderground v.1.15,2013-03-03 01:20:00,
2013-03-02 20:30:00,54.1,43.0,30.06,NW,311,5.0,5.0,66,0.00,,,0.00,Wunderground v.1.15,2013-03-03 01:30:00,
2013-03-02 20:35:00,54.0,42.9,30.06,NW,311,4.0,5.0,66,0.00,,,0.00,Wunderground v.1.15,2013-03-03 01:35:00,
2013-03-02 20:40:00,54.0,42.9,30.06,NW,311,3.0,3.0,66,0.00,,,0.00,Wunderground v.1.15,2013-03-03 01:40:00,
2013-03-02 20:45:00,53.9,42.8,30.06,NW,311,2.0,3.0,66,0.00,,,0.00,Wunderground v.1.15,2013-03-03 01:45:00,
2013-03-02 20:50:00,53.8,43.1,30.06,NW,311,2.0,2.0,67,0.00,,,0.00,Wunderground v.1.15,2013-03-03 01:50:00,
2013-03-02 21:00:00,53.9,43.6,30.06,NW,311,0.0,2.0,68,0.00,,,0.00,Wunderground v.1.15,2013-03-03 02:00:00,
2013-03-02 21:10:00,54.1,43.8,30.06,NW,311,0.0,2.0,68,0.00,,,0.00,Wunderground v.1.15,2013-03-03 02:10:00,
2013-03-02 21:15:00,54.2,43.9,30.06,NW,311,0.0,2.0,68,0.00,,,0.00,Wunderground v.1.15,2013-03-03 02:15:00,
2013-03-02 21:20:00,54.1,43.8,30.06,NW,311,0.0,2.0,68,0.00,,,0.00,Wunderground v.1.15,2013-03-03 02:20:00,
2013-03-02 21:25:00,53.9,43.2,30.06,NW,311,0.0,2.0,67,0.00,,,0.00,Wunderground v.1.15,2013-03-03 02:25:00,
2013-03-02 21:35:00,53.7,43.8,30.06,NW,311,0.0,2.0,69,0.00,,,0.00,Wunderground v.1.15,2013-03-03 02:35:00,
2013-03-02 21:40:00,53.5,43.6,30.06,NW,311,0.0,2.0,69,0.00,,,0.00,Wunderground v.1.15,2013-03-03 02:40:00,
2013-03-02 21:45:00,53.5,43.2,30.06,NW,311,0.0,2.0,68,0.00,,,0.00,Wunderground v.1.15,2013-03-03 02:45:00,
2013-03-02 21:50:00,53.5,43.2,30.07,NW,311,0.0,2.0,68,0.00,,,0.00,Wunderground v.1.15,2013-03-03 02:50:00,
2013-03-02 21:55:00,53.5,43.2,30.07,NW,311,0.0,2.0,68,0.00,,,0.00,Wunderground v.1.15,2013-03-03 02:55:00,
2013-03-02 22:00:00,53.6,43.3,30.06,NW,311,0.0,0.0,68,0.00,,,0.00,Wunderground v.1.15,2013-03-03 03:00:00,
2013-03-02 22:10:00,53.8,43.5,30.06,NW,311,0.0,0.0,68,0.00,,,0.00,Wunderground v.1.15,2013-03-03 03:10:00,
2013-03-02 22:15:00,53.7,43.0,30.06,NW,311,0.0,0.0,67,0.00,,,0.00,Wunderground v.1.15,2013-03-03 03:15:00,
2013-03-02 22:20:00,53.6,42.9,30.06,NW,311,0.0,0.0,67,0.00,,,0.00,Wunderground v.1.15,2013-03-03 03:20:00,
2013-03-02 22:25:00,53.3,43.0,30.06,NW,311,0.0,0.0,68,0.00,,,0.00,Wunderground v.1.15,2013-03-03 03:25:00,
2013-03-02 22:30:00,53.2,42.9,30.06,NW,312,0.0,0.0,68,0.00,,,0.00,Wunderground v.1.15,2013-03-03 03:30:00,
2013-03-02 22:35:00,53.0,42.3,30.06,NW,312,0.0,0.0,67,0.00,,,0.00,Wunderground v.1.15,2013-03-03 03:35:00,
2013-03-02 22:45:00,52.7,42.8,30.06,NW,313,0.0,0.0,69,0.00,,,0.00,Wunderground v.1.15,2013-03-03 03:45:00,
2013-03-02 22:50:00,52.4,42.5,30.06,NW,313,0.0,0.0,69,0.00,,,0.00,Wunderground v.1.15,2013-03-03 03:50:00,
2013-03-02 22:55:00,52.4,42.5,30.06,NW,313,0.0,0.0,69,0.00,,,0.00,Wunderground v.1.15,2013-03-03 03:55:00,
2013-03-02 23:00:00,52.6,42.3,30.05,NW,313,0.0,0.0,68,0.00,,,0.00,Wunderground v.1.15,2013-03-03 04:00:00,
2013-03-02 23:10:00,52.8,42.5,30.05,NW,313,0.0,0.0,68,0.00,,,0.00,Wunderground v.1.15,2013-03-03 04:10:00,
2013-03-02 23:15:00,52.8,42.5,30.05,NW,313,0.0,0.0,68,0.00,,,0.00,Wunderground v.1.15,2013-03-03 04:15:00,
2013-03-02 23:20:00,52.8,42.5,30.05,NW,313,0.0,0.0,68,0.00,,,0.00,Wunderground v.1.15,2013-03-03 04:20:00,
2013-03-02 23:25:00,52.7,42.8,30.05,NW,313,0.0,0.0,69,0.00,,,0.00,Wunderground v.1.15,2013-03-03 04:25:00,
2013-03-02 23:30:00,52.7,43.2,30.05,NW,313,0.0,0.0,70,0.00,,,0.00,Wunderground v.1.15,2013-03-03 04:30:00,
2013-03-02 23:35:00,52.7,43.2,30.05,NW,313,0.0,0.0,70,0.00,,,0.00,Wunderground v.1.15,2013-03-03 04:35:00,
2013-03-02 23:40:00,52.6,43.8,30.05,NW,313,0.0,0.0,72,0.00,,,0.00,Wunderground v.1.15,2013-03-03 04:40:00,
2013-03-02 23:50:00,52.1,43.3,30.05,NW,313,0.0,0.0,72,0.00,,,0.00,Wunderground v.1.15,2013-03-03 04:50:00,
2013-03-02 23:55:00,52.1,43.0,30.05,NW,313,0.0,0.0,71,0.00,,,0.00,Wunderground v.1.15,2013-03-03 04:55:00,